• In United Kingdom
  • List of Countries
  • For 7 days
  • Water Temperature
  • Satellite Maps
  • Weather Map
  • Weather Widgets
  • user-avatar
    Login

    Hourly Weather Kaprun

    Today, 21 September, Thursday

    Time Temperature Precipitation Wind Pressure Humidity
    00:00 -5°C° 0 mm 2 mps 597 mmHg 93%
    01:00 -5°C° 0 mm 2 mps 597 mmHg 90%
    02:00 -5°C° 0.1 mm 2 mps 597 mmHg 90%
    03:00 -5°C° 0.1 mm 2 mps 597 mmHg 89%
    04:00 -5°C° 0.1 mm 2 mps 597 mmHg 89%
    05:00 -5°C° 0 mm 2 mps 597 mmHg 87%
    06:00 -4°C° 0 mm 2 mps 597 mmHg 85%
    07:00 -3°C° 0 mm 2 mps 597 mmHg 84%
    08:00 -1°C° 0.1 mm 2 mps 598 mmHg 81%
    09:00 +2°C° 0.1 mm 2 mps 599 mmHg 77%
    10:00 +4°C° 0.1 mm 2 mps 599 mmHg 74%
    11:00 +5°C° 0 mm 2 mps 599 mmHg 71%
    12:00 +5°C° 0 mm 2 mps 599 mmHg 69%
    13:00 +6°C° 0 mm 2 mps 600 mmHg 66%
    14:00 +6°C° 0 mm 2 mps 599 mmHg 67%
    15:00 +6°C° 0 mm 2 mps 599 mmHg 68%
    16:00 +6°C° 0 mm 2 mps 599 mmHg 69%
    17:00 +3°C° 0 mm 2 mps 598 mmHg 76%
    18:00 +2°C° 0 mm 1 mps 597 mmHg 83%
    19:00 0°C° 0 mm 1 mps 597 mmHg 90%
    20:00 0°C° 0 mm 1 mps 597 mmHg 89%
    21:00 -1°C° 0 mm 1 mps 597 mmHg 88%
    22:00 -3°C° 0 mm 2 mps 597 mmHg 87%
    23:00 -3°C° 0 mm 2 mps 597 mmHg 84%

    Tomorrow, 22 September, Friday

    Time Temperature Precipitation Wind Pressure Humidity
    00:00 -3°C° 0 mm 2 mps 597 mmHg 81%
    01:00 -3°C° 0 mm 2 mps 597 mmHg 78%
    02:00 -3°C° 0 mm 2 mps 597 mmHg 76%
    03:00 -3°C° 0 mm 2 mps 597 mmHg 75%
    04:00 -3°C° 0 mm 2 mps 597 mmHg 73%
    05:00 -2°C° 0 mm 2 mps 597 mmHg 71%
    06:00 -2°C° 0 mm 2 mps 598 mmHg 70%
    07:00 -1°C° 0 mm 2 mps 598 mmHg 68%
    08:00 +4°C° 0 mm 1 mps 599 mmHg 66%
    09:00 +6°C° 0 mm 1 mps 600 mmHg 64%
    10:00 +9°C° 0 mm 1 mps 601 mmHg 61%
    11:00 +10°C° 0 mm 1 mps 601 mmHg 61%
    12:00 +10°C° 0 mm 1 mps 602 mmHg 60%
    13:00 +11°C° 0 mm 1 mps 602 mmHg 59%
    14:00 +9°C° 0 mm 2 mps 602 mmHg 62%
    15:00 +9°C° 0 mm 2 mps 601 mmHg 65%
    16:00 +8°C° 0 mm 2 mps 601 mmHg 67%
    17:00 +6°C° 0 mm 2 mps 600 mmHg 75%
    18:00 +5°C° 0 mm 1 mps 600 mmHg 82%
    19:00 +3°C° 0 mm 1 mps 599 mmHg 90%
    20:00 +2°C° 0 mm 1 mps 599 mmHg 90%
    21:00 +2°C° 0 mm 1 mps 599 mmHg 90%
    22:00 +1°C° 0 mm 2 mps 599 mmHg 90%
    23:00 -1°C° 0 mm 2 mps 599 mmHg 88%

    Day after tomorrow, 23 September, Saturday

    Time Temperature Precipitation Wind Pressure Humidity
    00:00 -1°C° 0 mm 2 mps 599 mmHg 87%
    01:00 -1°C° 0 mm 2 mps 599 mmHg 86%
    02:00 -1°C° 0 mm 2 mps 599 mmHg 86%
    03:00 -1°C° 0 mm 2 mps 599 mmHg 86%
    04:00 -1°C° 0 mm 2 mps 599 mmHg 85%
    05:00 -1°C° 0 mm 2 mps 599 mmHg 84%
    06:00 +2°C° 0 mm 1 mps 599 mmHg 83%
    07:00 +2°C° 0 mm 1 mps 600 mmHg 82%
    08:00 +4°C° 0 mm 1 mps 600 mmHg 77%
    09:00 +7°C° 0 mm 1 mps 601 mmHg 72%
    10:00 +9°C° 0 mm 1 mps 602 mmHg 67%
    11:00 +10°C° 0 mm 1 mps 602 mmHg 64%
    12:00 +10°C° 0 mm 1 mps 602 mmHg 62%
    13:00 +11°C° 0 mm 1 mps 602 mmHg 60%
    14:00 +10°C° 0.1 mm 2 mps 602 mmHg 64%
    15:00 +9°C° 0.1 mm 2 mps 601 mmHg 68%
    16:00 +8°C° 0.1 mm 2 mps 601 mmHg 72%
    17:00 +7°C° 0.1 mm 2 mps 600 mmHg 80%
    18:00 +6°C° 0.1 mm 1 mps 599 mmHg 87%
    19:00 +4°C° 0.1 mm 1 mps 598 mmHg 95%
    20:00 +3°C° 0 mm 1 mps 598 mmHg 96%
    21:00 +3°C° 0 mm 1 mps 598 mmHg 96%
    22:00 +3°C° 0 mm 1 mps 599 mmHg 97%
    23:00 +2°C° 0 mm 1 mps 598 mmHg 97%

    24 September, Sunday

    Time Temperature Precipitation Wind Pressure Humidity
    00:00 +2°C° 0 mm 1 mps 598 mmHg 96%
    01:00 +1°C° 0 mm 1 mps 598 mmHg 96%
    02:00 -1°C° 0 mm 2 mps 597 mmHg 96%
    03:00 -1°C° 0 mm 2 mps 597 mmHg 95%
    04:00 -1°C° 0 mm 2 mps 597 mmHg 94%
    05:00 -1°C° 0 mm 2 mps 597 mmHg 93%
    06:00 -1°C° 0 mm 2 mps 597 mmHg 92%
    07:00 +1°C° 0 mm 2 mps 597 mmHg 90%
    08:00 +3°C° 0 mm 2 mps 598 mmHg 84%
    09:00 +6°C° 0 mm 1 mps 599 mmHg 77%
    10:00 +8°C° 0 mm 1 mps 600 mmHg 71%
    11:00 +9°C° 0.1 mm 1 mps 600 mmHg 69%
    12:00 +8°C° 0.1 mm 2 mps 600 mmHg 68%
    13:00 +9°C° 0.1 mm 2 mps 600 mmHg 67%
    14:00 +8°C° 0.4 mm 2 mps 599 mmHg 72%
    15:00 +7°C° 0.4 mm 2 mps 599 mmHg 77%
    16:00 +7°C° 0.4 mm 2 mps 599 mmHg 82%
    17:00 +5°C° 0.4 mm 2 mps 598 mmHg 86%
    18:00 +5°C° 0.4 mm 1 mps 598 mmHg 91%
    19:00 +4°C° 0.4 mm 1 mps 597 mmHg 95%
    20:00 +3°C° 0.1 mm 1 mps 597 mmHg 95%
    21:00 +3°C° 0.1 mm 1 mps 597 mmHg 95%
    22:00 +3°C° 0.1 mm 1 mps 597 mmHg 95%
    23:00 +2°C° 0 mm 1 mps 597 mmHg 94%

    25 September, Monday

    Time Temperature Precipitation Wind Pressure Humidity
    00:00 +2°C° 0 mm 1 mps 596 mmHg 93%
    01:00 +1°C° 0 mm 1 mps 596 mmHg 92%
    02:00 +1°C° 0 mm 1 mps 596 mmHg 91%
    03:00 +1°C° 0 mm 1 mps 596 mmHg 90%
    04:00 +1°C° 0 mm 1 mps 595 mmHg 89%
    05:00 +1°C° 0 mm 1 mps 596 mmHg 88%
    06:00 +1°C° 0 mm 1 mps 596 mmHg 87%
    07:00 +1°C° 0 mm 1 mps 596 mmHg 86%
    08:00 +4°C° 0 mm 1 mps 597 mmHg 80%
    09:00 +6°C° 0 mm 1 mps 598 mmHg 74%
    10:00 +9°C° 0 mm 1 mps 599 mmHg 67%
    11:00 +9°C° 0.1 mm 1 mps 599 mmHg 66%
    12:00 +10°C° 0.1 mm 1 mps 599 mmHg 64%
    13:00 +10°C° 0.1 mm 1 mps 600 mmHg 62%
    14:00 +10°C° 0.3 mm 1 mps 599 mmHg 68%
    15:00 +9°C° 0.3 mm 1 mps 599 mmHg 74%
    16:00 +9°C° 0.3 mm 1 mps 599 mmHg 79%
    17:00 +7°C° 0.2 mm 1 mps 598 mmHg 84%
    18:00 +5°C° 0.2 mm 1 mps 598 mmHg 89%
    19:00 +4°C° 0.2 mm 1 mps 597 mmHg 94%
    20:00 +3°C° 0 mm 1 mps 597 mmHg 94%
    21:00 +2°C° 0 mm 2 mps 597 mmHg 94%
    22:00 +2°C° 0 mm 2 mps 598 mmHg 94%
    23:00 +2°C° 0 mm 2 mps 597 mmHg 94%

    26 September, Tuesday

    Time Temperature Precipitation Wind Pressure Humidity
    00:00 +2°C° 0 mm 2 mps 597 mmHg 94%
    01:00 +1°C° 0 mm 2 mps 597 mmHg 94%
    02:00 +2°C° 0 mm 1 mps 597 mmHg 94%
    03:00 +2°C° 0 mm 1 mps 597 mmHg 94%
    04:00 +2°C° 0 mm 1 mps 597 mmHg 94%
    05:00 +2°C° 0 mm 1 mps 597 mmHg 93%
    06:00 +2°C° 0 mm 1 mps 597 mmHg 92%
    07:00 +2°C° 0 mm 1 mps 597 mmHg 91%
    08:00 +5°C° 0 mm 1 mps 598 mmHg 83%
    09:00 +7°C° 0 mm 1 mps 599 mmHg 75%
    10:00 +10°C° 0 mm 1 mps 601 mmHg 67%
    11:00 +10°C° 0 mm 1 mps 601 mmHg 63%
    12:00 +11°C° 0 mm 1 mps 601 mmHg 59%
    13:00 +12°C° 0 mm 2 mps 601 mmHg 55%
    14:00 +10°C° 0.1 mm 2 mps 601 mmHg 59%
    15:00 +10°C° 0.1 mm 2 mps 601 mmHg 64%
    16:00 +9°C° 0.1 mm 2 mps 600 mmHg 68%
    17:00 +8°C° 0.2 mm 1 mps 600 mmHg 77%
    18:00 +6°C° 0.2 mm 1 mps 599 mmHg 85%
    19:00 +4°C° 0.2 mm 1 mps 598 mmHg 94%
    20:00 +4°C° 0 mm 1 mps 598 mmHg 94%
    21:00 +3°C° 0 mm 1 mps 599 mmHg 95%
    22:00 +3°C° 0 mm 1 mps 599 mmHg 95%
    23:00 +3°C° 0 mm 1 mps 599 mmHg 95%
    Show more